sat.trackr.live / text

‹ back to catalog

STARLINK-32039

NORAD 60604 · 2024-150X

PAYLOAD ACTIVE UNKNOWN

§ Identity

Operator
Country
US
Launch date
2024-08-20
Launch site
AFETR
Launch vehicle
Mass (kg)
RCS (m²)

Purposes: comms

External: N2YO · Heavens-Above · Gunter

§ Orbital elements

Epoch: 2026-05-25T04:18:58.589856Z

Period
94.11 min
Inclination
53.1619°
Eccentricity
0.0001241
Mean motion
15.30179897 rev/d
Perigee alt
474.4 km
Apogee alt
476.1 km
Semi-major
6,853.4 km
B*
-7.1275e-5
RAAN
314.4828°
Arg perigee
99.6204°
Mean anomaly
260.4936°
Rev number
9,971

§ Raw data

STARLINK-320391 60604U 24150X   26145.17984479 -.00002468  00000+0 -71275-4 0  99922 60604  53.1619 314.4828 0001241  99.6204 260.4936 15.30179897 99717

JSON: /api/v1/satellites/60604 · /tle

For live sub-satellite position, see the globe view (requires WebGL).

§ Visibility from observer

Set your observer location to see the next 7 days of passes ≥ 10°. The values pass through the URL so the page stays shareable.

No JS? Fill the form by hand. The geolocation button needs JavaScript.